Regional Weather Roundup
Issued by NWS Cleveland, OH

Home | Current Version | Previous Version | Graphics & Text | Print | Product List | Glossary On
Versions: 1 2 3 4 5 6 7 8 9 10 11 12 13 14 15 16 17 18 19 20 21 22 23 24 25 26 27 28 29 30 31 32 33 34 35 36 37 38 39 40 41 42 43 44 45 46 47 48 49 50
000
ASUS41 KCLE 300410
RWRCLE
OHIO REGIONAL WEATHER ROUNDUP
NATIONAL WEATHER SERVICE CLEVELAND, OH
1200 AM EDT THU JUL 30 2015

NOTE: "FAIR" INDICATES FEW OR NO CLOUDS BELOW 12,000 FEET WITH NO
SIGNIFICANT WEATHER AND/OR OBSTRUCTIONS TO VISIBILITY.

OHZ001>008-015>018-024>027-034-035-043-044-300500-
   NORTHWEST OHIO

CITY           SKY/WX    TMP DP  RH WIND       PRES   REMARKS
DEFIANCE       CLEAR     69  60  73 SW3       29.98S
FINDLAY        CLEAR     73  66  78 NW8       29.97R
TOLEDO EXPRESS CLEAR     69  63  81 W5        29.96S
TOLEDO EXEC    CLEAR     72  59  63 W8        29.97R
LIMA           PTCLDY    73  58  59 NW9       29.99R
$$

OHZ009>014-019>023-028>033-038-089-300500-
   NORTHEAST OHIO

CITY           SKY/WX    TMP DP  RH WIND       PRES   REMARKS
CLE-HOPKINS    CLOUDY    75  72  90 SW5       29.94R
CLE-LAKEFRONT  CLOUDY    78  72  81 SW8       29.90S
CUY CO. ARPT   NOT AVBL
LORAIN-ELYRIA  CLOUDY    74  72  93 W8        29.94R
ASHTABULA      CLOUDY    76  72  87 CALM      29.92F
AKRON-CANTON   CLOUDY    77  71  82 W6        29.94F
WOOSTER        CLOUDY    75  72  90 W5        29.96R
MANSFIELD      MOCLDY    75  72  90 SW6       29.97S
YOUNGSTOWN     CLOUDY    77  71  82 NW3       29.93F
$$

OHZ042-051>053-060>062-070>072-077>081-300500-
  SOUTHWEST OHIO

CITY           SKY/WX    TMP DP  RH WIND       PRES   REMARKS
CINC-COVINGTON CLOUDY    75  73  93 SW5       30.01S
CINC-LUNKEN    CLOUDY    75  74  96 SW3       29.99S
HAMILTON       CLOUDY    76  73  91 CALM      29.99F
DAYTON         MOCLDY    76  75  97 W6        30.00S
WRIGHT-PAT AFB PTCLDY    76  76  98 W2        29.98S
DAYTON GENERAL CLOUDY    76  73  91 CALM      29.98F FOG
WILMINGTON     CLOUDY    75  72  90 W9        29.99S
$$

OHZ036-037-039>041-045>050-054>059-063>069-073>076-082>088-300500-
  CENTRAL AND SOUTHEAST OHIO

CITY           SKY/WX    TMP DP  RH WIND       PRES   REMARKS
COLUMBUS       CLOUDY    76  74  93 W3        29.96S
OSU AIRPORT    MOCLDY    75  73  93 W7        29.96F
BOLTON FIELD   MOCLDY    75  74  97 W6        29.97S
RICKENBACK AFB MOCLDY    74  73  97 SW5       29.96S FOG
NEWARK         CLOUDY    74  72  93 CALM      29.96R
MARION         MOCLDY    76  73  91 W3        29.97S
LANCASTER      MOCLDY    73  71  93 CALM      29.97S FOG
ZANESVILLE     CLOUDY    75  70  84 W5        29.95S
NEW PHILLY     CLOUDY    77  72  84 W3        29.94S
$$


USA.gov is the U.S. government's official web portal to all federal, state and local government web resources and services.